Terminal Aerodrome Forecast
Issued by NWS Wakefield, VA

Home | Current Version | Previous Version | Text Only | Print | Product List | Glossary On
Versions: 1 2 3 4 5 6 7 8 9 10 11 12
000
FTUS41 KAKQ 050537
TAFSBY
TAF
KSBY 050537Z 0506/0606 21010KT P6SM SKC
     FM051500 23010KT P6SM SKC
     FM052300 20005KT P6SM SCT050 BKN120
     FM060300 20005KT P6SM BKN050 OVC120=

USA.gov is the U.S. government's official web portal to all federal, state and local government web resources and services.